Regional Weather Roundup
Issued by NWS

Home | Current Version | Previous Version | Graphics & Text | Print | Product List | Glossary On
Versions: 1 2 3 4 5 6 7 8 9 10 11 12 13 14 15 16 17 18 19 20 21 22 23 24 25 26 27 28 29 30 31 32 33 34 35 36 37 38 39 40 41 42 43 44 45 46 47 48 49 50
000
ASUS43 KIND 241309
RWRIN

WEATHER ROUNDUP FOR INDIANA
NATIONAL WEATHER SERVICE INDIANAPOLIS IN
900 AM EDT FRI OCT 24 2014

NOTE: "FAIR" INDICATES FEW OR NO CLOUDS BELOW 12,000 FEET WITH NO
SIGNIFICANT WEATHER AND/OR OBSTRUCTIONS TO VISIBILITY.

* - STATION DOES NOT REPORT WEATHER SUCH AS PRECIPITATION OR FOG.

+ - STATION NOT QUALITY CONTROLLED BY THE NATIONAL WEATHER SERVICE.
    USE DATA WITH CAUTION...ESPECIALLY DEWPOINT AND RELATIVE
    HUMIDITY OBSERVATIONS.

INZ001>003-010>013-019-020-241400-
NORTHWEST INDIANA

CITY           SKY/WX    TMP DP  RH WIND       PRES   REMARKS
GARY /AIRPORT/ CLOUDY    54  46  76 SW6       30.07S
KNOX *+        CLOUDY    48  45  88 CALM      30.08R
LA PORTE +     CLOUDY    51  48  90 SW3       30.08S
MICHIGAN CITY+ CLOUDY    50  43  76 S5        30.07S
MONTICELLO +   CLOUDY    48  47  95 S3        30.08R
RENSSELAER +   CLOUDY    48  48 100 CALM      30.09R FOG
VALPARAISO     CLOUDY    50  46  86 S3        30.08R

$$

LMZ046-743>745-241400-
SOUTHERN LAKE MICHIGAN

STATION/POSITION TIME  TEMP WIND        PRES
                       AIR  DIR/SP/G
                 (UTC) (F)  (DEG/KT/KT) (MB)
MICHIGAN CITY    1300   52  150/  7/  9   N/A

$$

INZ004-005-014>016-021>024-241400-
NORTH CENTRAL INDIANA

CITY           SKY/WX    TMP DP  RH WIND       PRES   REMARKS
ELKHART        CLOUDY    48  45  87 SW5       30.08R
GOSHEN         CLOUDY    48  45  89 S5        30.07S FOG
LOGANSPORT +   CLOUDY    46  43  87 SW5       30.10R
PERU/GRISSOM   CLOUDY    47  47 100 S5        30.09S FOG
ROCHESTER +    MOCLDY    50  46  87 SW5       30.09R
SOUTH BEND     CLOUDY    51  44  77 SW7       30.09R
WARSAW +       CLOUDY    46  45  93 CALM      30.08S FOG

$$

INZ006>009-017-018-025>027-241400-
NORTHEAST INDIANA

CITY           SKY/WX    TMP DP  RH WIND       PRES   REMARKS
ANGOLA *+      CLOUDY    45  41  87 CALM      30.07S
AUBURN +       CLOUDY    43  41  93 CALM      30.09R FOG
FORT WAYNE     MOCLDY    45  41  86 SW6       30.11R
HUNTINGTON +   CLOUDY    45  42  89 SW3       30.10R

$$

INZ028-029-035-036-043>045-051>053-241400-
WEST CENTRAL INDIANA

CITY           SKY/WX    TMP DP  RH WIND       PRES   REMARKS
GREENCASTLE +  RAIN      45  43  93 CALM      30.12R
LAFAYETTE      CLOUDY    48  46  93 CALM      30.10R
TERRE HAUTE    CLOUDY    48  46  93 SE3       30.11R

$$

INZ030>032-037>040-046>048-054>057-064-065-241400-
CENTRAL INDIANA

CITY           SKY/WX    TMP DP  RH WIND       PRES   REMARKS
ANDERSON       PTCLDY    41  39  93 CALM      30.11
CP ATTERBURY + MOCLDY    34  34 100 CALM      30.13S
COLUMBUS       CLEAR     37  37 100 CALM      30.14  FOG
FRANKFORT +    LGT RAIN N/A N/A N/A CALM      30.12R
INDIANAPOLIS   MOCLDY    46  42  86 CALM      30.11R
-EAGLE CREEK   CLOUDY    45  42  89 S3        30.11R
KOKOMO *+      CLOUDY    48  43  81 CALM      30.10S
MARION +       PTCLDY    41  38  88 SE5       30.11R FOG
MT COMFORT *+  CLEAR     43  41  93 S5        30.12S
SHELBYVILLE    CLEAR     41  38  89 CALM      30.12R FOG
ZIONSVILLE +   LGT RAIN  45  42  90 CALM      30.11S

$$

INZ033-034-041-042-049-050-058-059-241400-
EAST CENTRAL INDIANA

CITY           SKY/WX    TMP DP  RH WIND       PRES   REMARKS
MUNCIE         CLEAR     46  39  76 SW6       30.10S

$$

INZ060-061-067>069-081>083-085>088-241400-
SOUTHWEST INDIANA

CITY           SKY/WX    TMP DP  RH WIND       PRES   REMARKS
EVANSVILLE     MOCLDY    50  47  89 CALM      30.13S
HUNTINGBURG *+ CLOUDY    45  43  93 CALM      30.13S
WASHINGTON +   CLOUDY    47  47  97 CALM      30.12S

$$

INZ062-063-066-070>080-084-089>092-241400-
SOUTH CENTRAL AND SOUTHEAST INDIANA

CITY           SKY/WX    TMP DP  RH WIND       PRES   REMARKS
BLOOMINGTON    CLOUDY    45  43  93 CALM      30.12R

$$




USA.gov is the U.S. government's official web portal to all federal, state and local government web resources and services.